Riverbank, California, United States (95367)
Lat: 37.74N, Lon: 120.93W
Wx Zone: CAZ019
Local Info
Past Weather Observations for Monday, February 23, 2015

NOTE: This archive is for the closest National Weather Service station to Riverbank. Information may differ from the station used for current weather conditions.

Click here for Long-term Archive

Time Weather Temperature Dewpoint Humidity Pressure Winds Precip Visibility
23:53
Clear
41°F / 5°C 37°F / 3°C 87% 30.21 in
(1023 mb)
Calm - 10SM
22:53
Clear
45°F / 7°C 39°F / 4°C 81% 30.21 in
(1023 mb)
Calm - 9SM
21:53
Clear
43°F / 6°C 39°F / 4°C 87% 30.18 in
(1022 mb)
SE 4.6 mph
(SE 7 kph)
- 10SM
20:53
Clear
46°F / 8°C 39°F / 4°C 76% 30.18 in
(1022 mb)
Calm - 10SM
19:53
Clear
52°F / 11°C 41°F / 5°C 67% 30.18 in
(1022 mb)
S 3.5 mph
(S 6 kph)
- 10SM
18:53
Clear
55°F / 13°C 41°F / 5°C 59% 30.15 in
(1021 mb)
S 3.5 mph
(S 6 kph)
- 10SM
17:53
Clear
57°F / 14°C 39°F / 4°C 51% 30.12 in
(1020 mb)
SSE 3.5 mph
(SSE 6 kph)
- 10SM
16:53
Clear
61°F / 16°C 39°F / 4°C 45% 30.12 in
(1020 mb)
SSE 5.8 mph
(SSE 9 kph)
- 10SM
15:53
Clear
61°F / 16°C 39°F / 4°C 45% 30.09 in
(1019 mb)
Variable 3.5 mph
(Variable 6 kph)
- 10SM
14:53
Partly Cloudy
61°F / 16°C 39°F / 4°C 45% 30.09 in
(1019 mb)
Variable 3.5 mph
(Variable 6 kph)
- 10SM
13:53
Partly Cloudy
61°F / 16°C 39°F / 4°C 45% 30.09 in
(1019 mb)
ESE 5.8 mph
(ESE 9 kph)
- 10SM
12:53
Clear
57°F / 14°C 39°F / 4°C 51% 30.06 in
(1018 mb)
Variable 3.5 mph
(Variable 6 kph)
- 10SM
11:53
Clear
55°F / 13°C 37°F / 3°C 51% 30.06 in
(1018 mb)
W 5.8 mph
(W 9 kph)
- 10SM
10:59
Overcast
52°F / 11°C 32°F / 0°C 47% 30.06 in
(1018 mb)
NNW 5.8 mph
(NNW 9 kph)
- 10SM
10:53
Mostly Cloudy
52°F / 11°C 30°F / -1°C 44% 30.06 in
(1018 mb)
NNW 5.8 mph
(NNW 9 kph)
- 10SM
09:53
Mostly Cloudy
48°F / 9°C 32°F / 0°C 54% 30.04 in
(1017 mb)
WNW 12.7 mph
(WNW 20 kph)
- 10SM
08:53
Overcast
45°F / 7°C 34°F / 1°C 66% 30.01 in
(1016 mb)
NW 6.9 mph
(NW 11 kph)
- 10SM
08:43
Overcast
45°F / 7°C 34°F / 1°C 66% 30.01 in
(1016 mb)
NW 6.9 mph
(NW 11 kph)
- 10SM
08:33
Overcast
45°F / 7°C 34°F / 1°C 66% 30.01 in
(1016 mb)
NW 5.8 mph
(NW 9 kph)
- 10SM
07:53
Mostly Cloudy
43°F / 6°C 34°F / 1°C 71% 29.98 in
(1015 mb)
NW 4.6 mph
(NW 7 kph)
- 10SM
06:53
Clear
41°F / 5°C 30°F / -1°C 66% 29.95 in
(1014 mb)
NW 6.9 mph
(NW 11 kph)
- 10SM
05:53
Clear
41°F / 5°C 28°F / -2°C 61% 29.92 in
(1013 mb)
NW 5.8 mph
(NW 9 kph)
- 10SM
04:53
Clear
45°F / 7°C 28°F / -2°C 53% 29.89 in
(1012 mb)
W 6.9 mph
(W 11 kph)
- 10SM
03:53
Mostly Cloudy
43°F / 6°C 30°F / -1°C 61% 29.89 in
(1012 mb)
NW 5.8 mph
(NW 9 kph)
- 10SM
02:53
Partly Cloudy
45°F / 7°C 30°F / -1°C 57% 29.86 in
(1011 mb)
W 6.9 mph
(W 11 kph)
- 10SM
01:53
Clear
45°F / 7°C 32°F / 0°C 61% 29.86 in
(1011 mb)
SSW 6.9 mph
(SSW 11 kph)
- 10SM
00:53
Clear
43°F / 6°C 37°F / 3°C 81% 29.86 in
(1011 mb)
Calm - 10SM
Time Weather Temperature Dewpoint Humidity Pressure Winds Precip Visibility


Weather for websites

WeatherForYou.com, LLC is not responsible for any damages or problems caused by this service. Current weather conditions are obtained from the closest station including government and personal stations which may have varying degrees of accuracy. Weather forecasts are derived from the NOAA NDFD. Like all things, this site belongs to Jesus Christ... He just trusts me to maintain it. If you have any questions or comments email webmaster@weatherforyou.com

Copyright © 2015, WeatherForYou.com LLC. All rights reserved.